Theta_e
354 353 353 352 353 353 351 352 350 349 353 353 350 349 350 352 352 350 351 350 348 348 349 349 350 350 350 352 352 353 351 349 350 352 350 347 345 345 344 344 344 343 343 342 340 340 341 342 345 347 349 349 349 348 347 345 344 343 344 344 344 343 340 338 338 338 339 339 339 337 336 333 329 326
353 353 353 353 354 353 352 352 351 351 353 354 352 350 351 352 352 352 353 352 351 350 349 349 349 348 348 349 351 353 351 347 350 353 351 346 344 344 344 343 343 344 342 339 338 339 340 341 343 345 348 349 350 350 350 349 347 345 344 344 344 345 344 342 339 337 337 338 339 339 339 338 337 336
353 354 355 354 354 353 353 352 351 351 352 353 353 352 351 352 353 353 353 354 354 351 349 349 350 348 347 348 351 353 350 347 349 352 348 344 345 345 345 345 344 342 340 338 338 339 340 341 342 344 345 346 348 349 350 349 349 348 347 345 345 345 346 345 344 342 339 338 338 338 339 339 339 339
354 355 356 356 355 354 353 354 353 352 352 351 352 353 352 352 353 353 353 354 353 350 350 351 350 349 349 350 351 353 351 347 348 352 350 345 346 346 345 347 347 343 339 338 339 339 340 341 342 343 344 344 345 346 347 347 347 348 349 348 347 347 347 347 347 346 345 343 341 339 338 338 338 339
353 354 354 354 352 352 353 353 353 352 351 350 351 352 352 352 353 353 353 354 353 350 350 351 351 350 350 350 352 352 352 351 350 353 352 349 348 347 344 345 347 344 341 340 340 341 341 341 342 343 344 346 347 348 349 348 347 346 348 349 349 349 349 349 349 349 349 348 346 343 341 339 339 338
351 353 353 352 352 352 352 353 353 353 351 350 349 349 351 352 352 352 353 354 355 353 352 352 352 351 351 351 352 352 352 352 351 352 351 350 349 347 344 344 346 346 343 341 341 342 342 342 343 345 347 348 349 350 351 351 350 349 349 350 350 350 351 351 351 351 351 350 350 348 346 343 342 341
353 354 354 353 353 353 353 353 353 353 352 351 350 349 351 352 351 352 353 353 354 354 353 351 351 351 351 352 353 353 352 352 352 350 348 347 346 344 343 345 347 348 345 343 342 342 343 343 344 346 348 349 350 351 351 351 352 352 352 352 352 352 352 352 351 351 351 350 350 350 349 347 344 344
356 356 356 355 354 354 353 353 353 353 351 350 350 351 352 353 354 354 353 351 351 352 350 350 352 352 352 353 354 353 352 351 352 350 347 345 344 341 342 345 347 348 347 345 343 344 344 344 344 346 348 348 349 350 350 351 351 351 352 352 353 353 352 352 351 351 351 351 350 350 350 349 347 345
356 357 356 356 355 355 354 354 354 353 352 351 351 351 352 352 353 354 353 352 352 351 347 348 352 352 350 351 352 350 349 348 349 347 345 345 345 344 345 347 347 348 348 347 346 346 347 346 345 346 347 348 349 349 349 350 350 350 350 351 352 352 352 352 352 352 351 351 351 350 350 350 349 347
355 356 355 355 354 353 354 354 353 351 352 352 351 352 353 353 352 352 351 352 354 352 348 345 346 348 347 348 349 347 346 346 344 344 344 346 348 348 349 351 350 348 348 349 349 347 347 348 348 346 345 345 346 347 348 348 348 349 349 350 350 350 351 351 351 351 350 350 350 350 350 350 350 348
355 355 356 356 354 352 353 352 351 351 352 352 351 351 354 354 352 351 350 352 353 352 349 346 345 347 346 345 345 345 345 344 344 343 342 345 350 351 349 351 352 350 348 349 351 350 349 350 351 348 343 339 338 340 343 345 345 346 347 347 348 349 349 349 348 348 348 349 349 349 349 349 349 349
355 356 356 355 354 353 352 350 349 349 350 350 349 349 351 352 353 353 352 351 352 352 350 347 346 349 348 344 344 345 344 343 343 345 345 347 352 353 350 349 350 350 350 352 353 352 350 350 350 347 344 341 336 334 337 341 343 344 345 345 345 346 346 346 346 346 346 346 347 348 348 348 349 349
357 355 354 354 354 352 351 350 348 348 349 349 349 349 351 351 352 353 351 350 350 349 349 348 346 347 346 344 345 345 345 344 343 347 350 351 353 355 354 352 351 350 351 353 353 352 351 351 350 347 344 344 340 334 334 339 342 344 344 343 343 343 343 343 344 345 345 345 346 347 349 349 349 349
355 354 353 354 353 349 348 348 347 347 348 348 348 349 350 348 348 350 350 349 348 346 347 347 345 344 344 344 345 346 346 346 345 347 350 352 354 355 354 354 352 349 348 351 352 352 351 351 351 348 344 344 343 338 334 336 340 342 342 341 342 342 342 342 343 344 344 344 345 347 349 350 349 349
353 354 354 354 351 346 345 346 346 347 346 346 346 348 348 348 348 349 349 349 348 347 346 346 345 344 343 343 346 347 347 346 346 348 351 353 353 353 353 354 353 349 346 346 346 347 349 350 351 349 345 344 344 341 336 333 334 336 336 337 338 340 341 340 341 343 344 345 345 346 349 350 349 349
354 355 354 354 351 345 344 346 347 348 346 343 344 345 346 347 348 349 350 350 350 349 347 346 345 344 342 341 345 348 346 345 346 349 353 354 353 352 353 353 353 350 345 342 343 347 350 351 351 349 347 346 345 343 339 335 331 331 331 330 330 333 337 338 338 338 340 343 345 347 349 350 350 349
356 355 354 354 351 346 345 346 346 347 346 343 342 343 343 345 345 346 348 349 350 349 348 348 347 346 345 343 344 347 346 344 347 350 353 353 351 351 351 351 353 353 347 342 346 350 351 352 351 349 347 346 345 344 342 338 334 333 331 327 325 326 330 334 335 334 334 337 341 344 347 350 351 350
356 354 352 351 349 347 347 346 344 345 345 344 343 343 344 345 346 345 345 346 347 348 348 348 347 347 347 345 345 346 345 344 345 348 352 351 349 349 350 351 352 353 350 347 350 353 352 351 351 349 347 346 346 344 343 339 337 335 332 328 325 324 326 328 330 330 330 331 333 337 342 346 348 348
355 352 350 348 348 347 347 346 345 344 344 345 345 344 345 348 348 347 347 346 347 348 347 347 348 348 347 346 345 346 347 346 344 344 346 347 347 348 349 348 348 350 350 350 351 352 350 349 350 349 347 346 345 343 342 340 337 336 334 331 327 325 325 324 324 325 327 328 329 332 335 337 338 339
352 350 349 349 348 347 346 345 345 345 345 346 345 344 347 349 349 348 348 347 347 348 348 348 349 349 348 347 346 346 348 349 346 343 343 344 346 348 347 346 347 349 350 350 350 350 349 348 348 348 347 345 344 343 342 340 338 337 336 334 330 327 325 323 321 322 325 328 332 333 332 330 328 330
351 350 349 349 347 345 344 345 347 349 349 347 345 346 348 349 350 351 351 349 347 347 349 349 348 348 349 349 348 347 348 348 347 345 343 343 347 349 348 347 347 348 350 350 349 348 349 348 347 348 347 345 344 342 341 339 339 337 337 336 331 327 325 323 321 320 323 329 333 334 332 330 329 331
351 352 350 349 348 347 345 344 345 347 348 348 348 350 350 348 348 351 351 349 347 347 348 348 348 348 349 349 348 348 347 348 349 348 344 345 348 350 349 348 347 346 348 349 348 347 348 348 347 347 347 346 343 341 339 339 338 337 337 334 330 327 325 323 322 320 322 327 331 332 333 332 332 332
351 351 350 350 349 347 345 345 346 347 348 349 349 350 350 349 348 350 350 349 348 348 348 348 347 347 348 348 348 347 347 347 350 349 347 348 350 348 347 346 346 346 346 347 347 347 347 346 346 345 346 345 344 341 339 339 338 336 335 333 330 328 326 325 323 322 321 324 327 330 332 332 332 333
350 349 349 350 349 347 346 346 347 348 348 348 348 348 349 349 348 350 350 349 349 349 348 347 347 346 346 347 347 346 347 347 348 348 347 348 348 347 346 346 346 346 345 345 346 346 346 345 344 343 343 344 343 342 340 339 338 336 334 333 331 330 328 326 324 322 322 323 324 327 330 331 332 333
350 349 348 349 349 349 348 347 347 347 348 348 348 348 348 348 348 348 349 348 348 348 348 348 347 348 347 347 347 347 347 348 348 348 348 346 346 347 347 347 346 346 345 345 345 344 343 342 341 340 340 341 340 340 340 339 337 335 334 332 331 331 330 327 325 324 323 322 321 322 325 327 329 329
348 349 348 349 350 350 349 348 348 347 347 346 346 346 347 347 347 348 347 347 347 348 348 348 348 348 347 347 349 350 350 350 350 349 348 347 346 347 346 345 345 345 344 343 344 343 341 340 339 337 337 338 338 337 337 337 337 336 334 332 331 331 330 328 328 328 327 325 322 320 320 321 323 324
346 347 347 347 347 347 346 346 345 344 343 344 344 344 345 345 346 347 347 347 347 347 347 347 347 348 347 347 349 349 349 350 349 347 347 347 346 346 344 341 340 342 342 340 340 340 337 335 335 334 333 335 336 335 334 335 334 334 333 332 331 330 329 328 328 330 329 328 325 320 317 317 317 318
343 342 342 342 342 341 341 341 342 341 342 342 342 343 343 344 345 346 346 346 347 347 347 347 347 347 346 346 346 346 346 347 347 346 345 345 344 345 344 338 335 337 339 338 338 336 332 330 330 329 328 328 329 330 331 332 332 332 333 332 331 329 328 326 326 327 327 326 324 320 317 317 317 316
339 339 339 339 338 338 338 339 340 340 340 340 340 341 342 342 343 344 344 345 345 345 345 345 346 346 345 345 346 345 345 345 345 345 344 344 343 342 340 335 333 334 335 334 333 332 330 329 329 328 327 326 325 326 328 329 330 330 331 331 330 329 328 326 325 324 324 322 320 318 319 320 321 320
335 336 336 335 334 333 334 335 337 337 338 338 338 338 339 339 340 341 342 342 342 343 344 344 344 344 344 344 344 344 344 344 344 344 343 343 342 339 336 334 334 334 333 332 331 331 331 331 331 329 328 327 324 323 324 326 327 329 330 330 329 328 327 326 324 323 321 318 314 313 315 317 317 316
327 326 329 331 331 331 332 333 334 334 335 335 335 335 335 335 335 336 338 338 339 339 340 341 342 342 341 341 342 342 342 342 342 342 342 341 340 337 335 334 334 333 332 331 331 332 332 332 331 331 329 327 323 320 319 319 319 322 326 328 328 326 325 324 323 321 319 315 311 310 312 313 314 315
317 322 330 333 333 333 333 333 333 333 333 333 333 332 332 333 333 333 334 334 335 336 336 336 337 338 338 337 338 338 339 339 339 339 338 338 337 336 334 332 331 331 331 331 331 331 331 330 330 330 329 327 324 321 317 314 313 316 322 325 326 325 322 321 321 321 318 313 310 309 309 310 313 316
320 328 333 334 334 334 334 333 333 333 333 333 332 331 332 332 333 333 333 332 333 333 333 333 333 334 334 335 335 335 336 337 337 337 336 335 335 334 333 332 331 329 329 329 328 329 330 330 329 328 328 326 324 320 316 313 314 319 322 323 324 324 322 320 321 321 318 313 310 309 309 311 315 316
330 332 331 331 331 332 332 332 332 332 332 332 331 331 331 330 331 332 333 332 332 331 331 331 331 330 331 333 333 333 333 334 334 335 334 334 333 332 331 331 330 329 328 327 325 326 328 329 329 328 327 324 321 318 315 312 313 319 324 324 322 321 320 320 320 320 317 313 310 308 307 309 315 318
332 331 330 330 330 329 329 330 330 330 330 331 330 330 330 330 330 330 331 331 330 330 330 330 330 330 330 331 331 331 331 331 331 332 331 330 330 329 329 329 329 328 328 328 326 326 325 325 324 323 321 320 319 318 318 317 315 316 320 322 320 318 317 318 318 317 316 313 311 310 310 310 313 318
330 330 329 328 328 328 328 328 328 328 328 329 329 329 328 329 329 330 329 329 329 329 329 329 329 329 329 329 329 329 329 329 329 329 329 328 329 329 328 328 328 327 327 327 326 324 322 321 320 319 319 319 319 318 320 322 320 317 317 318 319 319 319 318 317 316 314 313 313 315 316 316 316 317
328 328 327 327 327 327 326 327 327 326 326 326 326 326 326 327 327 327 327 327 327 327 328 328 327 327 327 327 327 327 327 327 328 328 327 327 327 327 327 327 327 326 326 326 325 323 322 320 319 319 319 319 319 319 321 322 320 318 317 317 317 319 320 319 318 315 313 313 315 317 317 317 316 317
326 326 326 326 326 325 325 325 325 325 325 325 325 324 324 324 325 325 325 325 325 325 326 326 326 326 326 327 327 327 327 327 327 327 326 325 324 325 325 326 325 324 324 325 324 323 322 320 319 319 319 319 318 319 321 321 320 318 318 317 316 316 315 315 314 315 315 315 316 317 317 316 316 316
325 324 324 324 324 324 324 323 323 323 323 323 323 323 322 322 322 322 322 324 324 324 324 325 325 325 324 324 324 324 324 324 324 324 323 321 321 322 322 322 322 322 321 321 321 321 320 319 318 318 317 316 315 315 316 318 318 317 316 315 313 311 310 309 310 313 315 316 316 317 316 315 315 315
323 323 323 323 322 322 322 322 322 322 321 321 321 320 320 319 319 318 318 320 320 320 321 321 321 321 320 320 320 320 320 320 320 319 319 318 318 318 318 317 316 316 315 315 316 317 317 317 317 316 315 313 311 310 309 310 311 312 312 312 312 313 312 312 311 311 311 311 312 313 314 314 314 314
322 321 321 322 321 321 321 321 320 320 319 319 319 318 318 318 317 317 318 318 318 318 319 319 318 318 318 317 317 317 317 318 318 317 317 317 317 316 316 315 315 315 315 316 316 317 316 316 315 315 314 312 309 309 309 310 312 314 315 315 315 315 314 313 312 311 309 308 308 309 310 311 312 313
321 321 320 320 320 319 319 319 318 318 318 318 317 317 317 317 316 316 317 317 316 316 317 317 316 316 315 315 315 314 314 315 316 316 316 316 316 316 316 316 316 316 317 317 317 316 316 315 314 313 312 312 311 312 313 314 315 316 316 316 315 314 313 313 312 311 309 309 308 308 308 309 310 311
320 319 318 318 318 317 317 317 316 316 316 316 316 315 315 315 315 314 314 314 314 314 314 314 314 313 313 313 313 313 313 314 314 314 313 314 314 314 314 314 315 315 315 314 314 314 313 313 313 312 312 312 312 313 314 314 314 314 314 314 314 313 313 312 311 310 309 309 309 308 308 308 308 309
317 317 316 316 315 315 314 314 314 314 314 314 314 314 313 313 313 312 312 312 312 311 311 312 311 311 311 311 311 311 311 312 311 311 311 311 312 312 312 312 312 312 312 312 312 312 312 311 311 311 311 311 311 311 312 312 312 312 312 311 311 312 311 311 310 310 309 309 309 309 308 308 308 307
316 316 315 314 313 313 312 312 312 312 312 312 312 312 312 312 311 311 311 310 310 309 309 310 309 309 308 308 308 308 308 309 309 309 310 310 310 310 310 310 310 310 310 311 310 310 310 310 310 310 310 310 310 310 311 311 310 310 310 310 310 310 310 310 310 309 309 309 309 309 308 308 308 307
Wind_Speed
10 9 9 10 10 10 10 10 10 9 8 8 7 8 8 7 7 8 7 6 5 6 6 6 7 7 5 2 2 3 1 2 4 4 4 4 3 4 5 5 5 6 7 9 10 9 8 7 6 5 4 4 3 4 4 4 5 4 4 3 2 2 2 2 3 4 5 5 5 6 6 7 7 8
10 10 9 10 10 10 10 10 10 8 8 8 8 7 7 6 6 7 8 6 6 6 5 4 6 7 5 4 4 4 1 3 6 4 2 3 4 4 4 4 5 6 8 9 9 9 9 8 6 5 4 4 4 4 4 5 6 7 7 6 5 4 4 3 4 4 5 6 6 7 7 7 7 7
10 10 10 11 11 10 10 11 10 9 8 9 8 8 8 7 6 7 7 6 6 5 5 7 7 5 4 4 3 2 2 3 5 3 1 4 5 4 3 5 7 7 8 9 9 9 9 8 7 6 6 6 6 6 6 6 7 7 7 8 8 7 6 5 5 5 5 6 6 7 7 8 8 8
10 10 10 11 11 10 10 11 11 10 9 9 9 8 9 7 7 8 7 7 7 6 6 7 5 4 4 3 2 2 1 1 3 2 1 5 6 5 6 8 9 8 9 10 9 9 9 8 7 6 6 5 5 5 6 7 7 7 7 7 8 8 8 8 7 7 7 7 7 7 8 8 9 9
10 11 12 12 12 12 12 12 11 11 10 10 9 9 8 7 8 9 8 8 8 7 6 5 3 4 4 1 1 0 2 2 3 1 2 6 8 9 9 10 9 9 10 10 10 9 8 7 6 6 5 4 3 3 3 4 4 6 6 7 7 8 8 9 9 9 9 9 9 9 9 9 9 10
11 12 13 13 13 12 12 12 11 12 11 11 11 10 8 8 8 8 7 8 8 8 6 3 3 4 3 2 1 1 3 3 3 2 2 4 6 7 9 12 10 10 11 10 9 8 7 6 6 4 3 3 2 2 2 2 1 2 3 4 5 6 7 8 8 9 9 10 10 11 11 10 9 9
12 12 12 13 12 11 12 12 11 11 11 12 12 11 10 10 10 9 9 9 8 9 8 4 4 5 4 2 3 2 3 3 3 3 2 3 4 4 6 10 10 10 12 10 9 8 7 7 6 4 3 2 2 2 2 2 1 0 1 2 3 4 5 6 7 8 9 10 10 11 12 13 12 10
12 12 12 13 12 12 12 12 12 12 12 12 11 11 11 10 9 10 11 10 8 9 9 6 5 6 4 2 3 4 3 4 4 4 4 3 3 2 5 10 11 11 13 11 9 9 8 7 7 5 3 2 2 2 2 1 1 1 2 2 3 4 5 6 7 9 10 10 11 11 12 13 14 13
13 13 13 13 13 12 12 12 12 12 13 12 11 11 11 10 9 10 9 8 8 9 9 9 8 8 7 6 7 6 3 4 6 7 6 5 4 3 4 9 10 9 11 11 10 10 9 9 9 7 4 3 3 3 3 3 4 3 4 4 5 6 7 8 9 10 11 12 12 13 12 13 14 14
14 13 13 13 13 12 12 12 12 12 13 13 12 11 11 11 11 11 10 9 10 10 12 12 11 10 9 8 8 7 5 4 6 7 7 6 6 4 2 5 7 8 9 9 11 11 11 11 10 8 5 4 5 4 4 4 4 4 5 6 6 7 8 9 10 11 12 13 14 14 14 14 14 15
13 13 12 13 14 14 14 14 12 13 15 14 13 12 11 12 12 11 12 12 12 12 12 12 11 11 10 9 9 9 8 6 6 8 8 7 8 7 4 4 5 7 8 8 9 11 12 11 10 8 5 6 7 6 5 4 4 4 5 6 7 8 9 9 10 11 12 13 14 14 15 14 14 15
13 13 12 12 13 14 15 14 13 15 16 16 15 14 13 13 12 12 13 13 13 13 13 12 11 11 11 11 11 11 10 8 7 8 9 9 9 8 6 4 4 5 6 5 6 9 10 9 8 8 7 8 8 8 7 5 4 4 5 6 6 7 8 8 9 10 11 12 12 13 14 14 14 14
13 14 14 12 11 13 15 13 13 14 14 15 15 13 13 15 14 14 15 15 14 14 13 13 14 14 13 13 12 12 11 10 8 9 10 10 9 8 6 6 5 4 4 5 7 8 9 8 5 7 8 12 9 8 8 7 4 4 4 4 4 5 5 5 6 6 8 9 10 11 12 13 13 13
15 14 14 12 13 14 14 13 13 13 13 14 14 13 14 17 17 17 17 16 16 16 15 15 16 16 15 14 12 12 11 11 10 10 11 10 9 8 8 8 7 5 5 6 8 7 5 5 3 1 4 11 9 8 7 7 5 5 4 3 2 2 2 3 3 3 4 6 7 8 8 8 9 10
15 14 13 13 14 15 13 13 14 14 14 14 14 15 16 17 17 17 18 18 18 17 16 16 16 16 16 14 13 12 11 11 11 11 12 12 11 9 9 9 9 8 7 7 9 8 6 6 5 5 9 12 9 8 7 7 7 7 6 5 3 3 3 2 2 2 2 3 3 4 4 4 4 7
14 14 13 13 15 15 13 13 14 15 15 15 15 16 17 17 17 17 18 19 19 18 18 17 17 17 16 15 13 12 12 13 12 12 13 13 11 10 10 10 10 11 9 7 8 8 7 8 6 7 12 13 8 6 8 8 8 9 8 8 6 4 4 4 3 2 2 1 1 1 1 1 3 5
13 13 13 13 14 15 13 13 14 14 15 16 17 17 16 17 17 17 18 18 18 18 18 18 18 17 16 16 15 14 14 15 14 13 13 13 12 11 11 10 10 11 11 9 8 7 8 8 7 8 13 14 9 9 10 9 10 10 10 10 9 6 5 4 4 4 3 2 1 0 0 1 2 4
13 14 15 15 16 15 14 14 14 14 15 16 18 17 17 18 18 18 19 19 19 18 19 19 18 17 17 17 17 16 16 17 17 16 15 13 13 13 13 13 12 12 12 9 7 8 9 9 9 11 14 15 12 10 10 10 10 11 11 12 10 8 6 5 4 4 4 4 3 2 1 1 1 2
16 17 17 17 17 17 17 17 17 17 17 17 17 17 18 20 21 20 20 19 19 19 19 19 18 18 17 18 19 18 17 17 18 18 18 17 16 15 15 15 14 13 12 10 9 10 8 9 12 12 12 15 14 11 9 10 11 10 11 12 11 8 7 5 4 4 3 3 3 3 2 2 2 2
18 18 18 18 18 19 19 18 17 18 18 18 18 19 21 22 22 21 20 19 19 18 18 18 18 19 18 19 20 20 19 19 19 18 19 18 17 15 16 15 13 12 12 10 10 9 7 8 9 8 9 14 16 14 11 11 12 11 10 11 10 8 7 5 4 3 2 1 2 3 3 3 2 1
19 18 18 19 19 19 18 15 14 16 18 19 20 22 23 23 22 20 19 20 19 18 17 17 18 18 19 19 21 21 21 22 21 20 20 19 16 15 16 15 12 12 11 9 8 8 7 8 8 5 7 10 13 15 16 13 13 15 13 10 9 8 7 6 4 3 2 2 2 3 4 4 3 3
18 17 16 17 18 18 18 17 17 19 20 21 22 23 23 23 23 21 21 22 21 20 19 19 18 19 19 20 21 22 22 23 22 22 22 19 16 16 18 17 15 14 12 11 11 10 8 9 9 7 8 8 8 12 16 14 14 17 14 8 7 8 8 7 6 5 4 3 4 5 5 5 6 7
13 14 15 16 17 19 20 21 20 21 21 22 23 21 20 21 21 20 21 22 22 21 21 20 21 20 20 20 22 23 23 23 23 24 22 19 18 19 19 19 19 18 15 14 16 14 9 8 9 8 9 9 7 11 16 16 16 17 14 9 9 10 9 9 8 7 7 6 6 7 7 7 7 8
12 13 14 14 14 17 20 20 20 20 21 22 22 21 21 21 21 21 21 20 20 22 23 23 23 22 21 20 22 23 24 25 25 24 21 19 19 19 19 19 20 19 17 16 17 16 11 7 7 7 8 9 8 11 14 13 11 12 13 14 15 13 11 10 10 8 8 8 9 9 9 9 9 6
12 11 12 13 14 15 17 18 19 21 22 23 24 25 25 26 25 23 22 21 21 22 23 24 24 23 20 19 20 21 23 24 24 23 21 21 20 19 20 21 22 21 18 15 15 15 12 8 5 5 6 7 7 9 10 9 8 9 10 12 15 16 14 12 10 10 10 10 11 11 11 12 12 10
13 10 11 14 17 18 19 19 20 21 22 22 24 26 27 27 27 25 24 23 23 22 23 24 24 24 21 20 20 19 19 22 23 21 19 21 21 20 18 16 17 18 14 11 13 13 12 11 8 6 7 7 6 7 9 10 10 10 11 9 10 13 13 10 9 12 13 11 11 11 11 13 13 14
16 15 15 18 18 17 17 17 18 18 19 20 21 22 24 25 25 25 24 23 23 23 24 25 26 26 25 23 21 20 20 22 21 18 18 19 20 21 19 13 12 14 12 11 12 12 11 12 13 12 13 12 9 8 8 8 8 11 12 10 8 11 11 8 8 9 8 11 15 16 15 15 15 16
13 14 15 14 12 10 10 12 14 15 16 17 17 18 19 20 20 21 21 20 20 21 22 24 25 26 26 24 23 22 22 22 20 18 18 19 20 20 19 13 9 9 10 10 10 10 10 12 12 11 12 12 10 8 7 7 8 10 12 10 9 9 8 7 8 9 10 13 16 17 15 15 15 15
7 8 8 8 7 8 8 9 10 11 11 11 12 13 14 15 15 16 16 15 16 16 18 21 23 23 23 24 24 23 21 20 20 19 17 18 19 16 13 10 8 8 9 9 10 10 10 10 9 7 6 7 7 7 7 9 9 10 11 11 11 10 11 13 14 12 13 15 16 15 13 12 13 15
5 6 7 8 9 8 8 8 7 7 7 8 9 9 8 8 10 11 12 12 12 13 14 17 17 16 17 19 21 21 19 18 19 19 16 17 18 14 12 11 11 10 10 10 10 9 8 7 5 4 4 6 7 7 8 9 11 11 12 14 15 12 12 16 17 16 16 18 18 16 14 13 15 17
5 5 7 8 9 10 9 8 7 6 6 6 7 6 5 5 5 6 7 8 8 10 12 13 12 11 12 15 16 17 17 16 16 16 15 15 16 14 12 12 11 11 11 10 9 7 6 5 5 6 7 8 10 10 10 12 14 14 12 13 16 15 11 12 15 17 19 20 19 16 15 15 15 15
2 4 8 9 10 12 12 11 11 10 7 7 7 7 8 9 9 9 8 5 3 4 6 8 8 8 9 10 11 11 12 13 13 13 13 13 13 13 11 7 4 4 5 6 7 6 5 5 6 8 10 11 12 13 13 14 15 14 12 11 12 13 12 12 12 13 17 21 19 16 15 16 14 13
5 7 9 7 7 9 10 9 9 9 7 7 7 7 7 8 8 9 10 9 6 4 2 2 5 6 4 4 5 7 9 11 12 13 13 13 14 13 10 8 5 4 3 3 6 8 7 7 7 10 12 14 15 15 14 14 13 11 10 11 10 10 10 10 9 11 18 21 19 16 16 15 14 15
9 8 6 5 4 5 6 7 8 7 7 7 7 6 6 5 5 6 8 9 8 6 5 4 2 2 3 3 4 5 6 8 10 11 11 12 13 11 9 9 8 7 6 5 5 9 11 11 12 14 16 17 17 15 13 12 11 9 9 10 11 11 10 9 10 13 19 21 20 18 17 13 12 15
8 6 5 5 5 5 6 7 8 7 7 7 7 6 7 7 7 6 6 7 6 5 5 4 4 2 2 5 5 5 5 6 8 8 8 7 7 6 6 7 7 7 8 9 10 12 14 14 14 15 16 18 18 17 14 11 9 10 11 12 13 13 12 12 13 15 17 18 18 17 16 12 9 11
8 8 7 7 7 6 7 7 7 8 8 8 8 8 7 8 8 7 7 7 6 6 6 6 6 5 4 1 1 1 1 2 3 4 4 4 5 5 6 7 7 7 9 12 12 10 11 12 13 13 12 11 12 14 14 11 8 10 13 11 10 10 10 11 13 15 15 15 14 12 12 10 8 7
10 9 9 8 7 7 8 7 7 8 8 8 8 8 8 8 8 8 9 9 9 9 9 8 7 6 5 4 3 2 2 1 2 3 4 4 5 4 6 8 9 10 11 11 10 8 9 10 11 11 10 9 10 11 11 9 7 10 13 12 10 10 9 10 12 14 14 13 12 10 11 11 9 9
10 9 9 8 8 8 8 7 7 8 8 7 7 8 7 7 6 6 7 8 8 8 8 7 6 5 3 3 2 2 2 3 4 4 4 4 4 3 4 5 6 7 8 8 9 10 12 12 12 9 8 8 8 8 7 5 5 8 11 12 11 12 14 14 14 13 12 11 11 11 12 12 12 13
10 9 9 8 8 8 7 7 7 7 6 5 5 6 6 7 6 6 5 5 6 7 7 6 6 6 6 5 5 6 6 6 7 7 7 7 8 8 9 10 9 9 10 11 11 11 11 11 11 12 11 11 12 13 13 12 10 12 16 17 15 15 17 18 15 12 11 10 10 12 13 13 14 16
8 9 8 7 7 7 6 6 6 6 6 6 5 3 3 4 4 5 5 5 6 7 8 8 7 6 8 8 7 8 8 9 10 9 9 10 11 11 12 13 13 13 13 12 11 9 9 11 14 17 17 17 16 16 17 17 16 16 20 22 18 14 15 15 14 14 15 15 15 15 14 13 14 15
7 7 7 5 5 5 4 4 5 5 5 7 8 7 7 8 9 8 8 8 6 5 6 7 6 5 5 6 5 5 6 7 8 7 7 8 9 10 12 14 13 10 9 8 7 6 7 12 16 18 18 17 15 13 12 13 12 11 12 15 15 13 14 17 18 17 15 14 14 15 15 14 14 13
6 6 5 5 5 4 4 4 4 4 4 5 5 5 6 9 11 9 8 9 8 5 5 5 6 5 5 6 7 8 6 5 6 6 6 6 6 7 9 10 8 6 6 6 6 6 8 11 12 13 14 13 11 9 9 10 10 9 9 11 15 16 16 17 17 17 15 13 13 12 12 13 13 12
4 4 4 3 3 3 3 3 3 4 4 5 5 4 4 5 7 6 6 6 7 7 6 6 6 6 7 7 8 7 6 6 6 7 6 7 7 7 7 7 7 7 7 7 8 8 9 10 10 11 11 9 7 8 10 10 10 11 10 10 12 14 16 17 18 18 17 16 15 14 13 12 12 12
3 2 1 1 2 2 2 2 3 4 4 4 4 4 4 4 5 6 6 7 7 7 6 6 6 6 6 6 7 5 4 6 8 8 8 8 8 8 8 8 8 8 8 8 9 9 8 9 9 9 9 9 9 10 10 10 11 12 12 12 13 13 14 17 19 20 20 19 17 17 16 16 16 16
4 3 2 3 4 5 5 4 5 6 6 5 4 5 5 6 6 6 6 7 8 8 8 7 7 8 9 9 9 7 7 8 8 7 7 8 7 8 8 7 8 9 9 9 9 9 9 10 10 10 10 11 11 11 12 13 14 15 15 15 15 15 15 15 17 18 20 20 18 18 19 19 19 19
Wind_Direction
280 281 285 291 291 293 296 299 306 313 314 310 309 312 316 323 327 327 334 348 352 352 5 12 12 35 52 360 19 72 136 136 96 68 56 57 48 30 13 8 15 14 11 7 6 8 8 4 353 346 337 326 315 296 278 266 256 243 231 222 207 216 230 229 231 226 225 226 223 224 224 223 225 226
280 284 285 287 287 292 296 300 305 304 305 309 309 311 313 313 315 318 322 328 343 357 355 344 1 19 30 40 82 106 126 102 106 110 87 54 27 13 8 3 7 7 2 360 358 357 355 351 341 330 320 314 312 305 296 283 270 260 251 244 233 225 227 231 238 241 238 237 235 234 234 234 233 233
281 283 285 286 285 290 298 299 297 297 297 299 305 309 302 300 304 304 305 310 323 340 340 343 354 356 5 23 51 99 105 96 110 130 84 32 22 25 35 15 1 355 357 355 353 352 347 344 337 323 310 299 291 287 285 280 275 269 261 255 252 244 238 237 240 245 246 247 249 246 245 244 242 241
272 275 277 281 283 286 293 295 295 298 297 293 295 297 297 299 298 292 289 291 299 310 329 340 338 324 336 351 21 77 153 70 74 96 19 20 17 17 13 4 355 348 355 355 346 345 344 343 342 333 323 312 302 293 285 276 267 263 260 258 258 254 250 248 249 252 253 253 254 254 254 252 250 249
263 268 269 273 280 283 285 288 292 295 294 291 289 287 292 296 289 288 287 286 293 302 312 321 311 320 337 320 10 30 254 323 38 21 324 355 1 2 350 344 344 337 341 346 342 343 345 345 351 349 348 350 342 330 315 297 271 254 252 254 256 256 254 254 256 259 262 263 261 259 257 256 254 253
262 264 269 274 279 282 284 286 287 289 289 289 288 283 288 296 287 283 280 277 290 303 305 315 309 299 285 260 302 302 263 312 354 307 308 338 348 352 328 323 329 329 332 340 339 343 349 351 359 6 9 24 27 27 27 13 350 260 250 249 251 252 251 251 254 258 265 270 270 266 262 260 259 258
265 264 265 269 273 273 276 278 280 284 285 286 289 285 287 294 291 286 281 273 282 297 296 294 289 279 272 291 304 271 264 289 302 306 321 331 338 341 309 306 310 318 329 336 337 343 352 355 2 11 13 27 47 51 56 56 53 58 239 241 247 252 254 253 254 258 265 271 272 269 263 258 257 258
259 261 262 263 265 264 267 271 275 278 280 283 286 285 287 292 291 291 289 278 275 286 287 283 274 262 249 245 249 244 270 285 279 290 298 303 308 303 298 298 298 310 321 327 336 346 353 355 356 1 1 3 2 354 356 350 338 298 257 249 250 255 258 261 263 264 268 270 271 271 266 259 253 252
252 255 259 261 261 262 265 268 271 274 278 281 282 283 285 281 276 282 287 279 274 277 276 271 261 252 252 248 237 228 246 282 282 286 290 290 279 265 290 293 294 304 310 319 336 344 349 351 349 349 349 348 344 332 322 312 303 291 274 261 256 258 259 261 264 266 267 269 268 268 268 264 255 247
252 255 260 264 265 262 261 264 268 272 275 279 281 286 286 279 275 278 277 272 272 274 273 273 270 265 266 264 251 241 238 246 264 274 279 279 273 270 261 273 290 302 305 320 332 334 342 344 342 348 354 356 353 334 321 310 292 284 279 272 266 264 263 262 264 265 266 267 267 265 264 265 259 248
253 255 257 263 267 263 259 263 270 272 271 273 275 275 275 278 278 272 266 266 268 271 274 278 278 275 273 266 256 252 249 244 250 258 257 254 261 271 259 238 273 297 306 323 327 325 332 332 333 345 354 1 1 343 328 322 299 291 286 282 280 275 273 272 268 266 265 263 264 264 260 260 259 249
252 252 251 258 268 266 261 265 270 270 269 271 272 271 270 276 278 271 268 269 269 271 274 276 277 276 274 269 258 252 250 250 249 249 250 249 249 258 266 257 247 267 292 305 292 300 312 311 327 353 346 338 353 349 335 329 316 308 295 281 278 273 272 273 272 271 269 264 262 263 260 255 253 246
249 253 256 259 264 265 265 268 271 268 266 267 273 280 278 275 272 271 273 273 274 276 275 272 273 271 269 269 263 253 248 249 250 245 245 247 242 241 252 264 257 247 262 261 258 282 308 311 341 13 333 311 330 353 341 328 318 310 297 280 273 267 263 264 267 270 273 272 268 267 264 256 249 242
253 258 263 263 263 265 264 266 267 265 260 261 268 275 275 272 269 269 271 272 274 276 273 269 270 269 268 270 265 256 248 246 246 243 242 241 236 231 234 247 255 249 241 245 252 267 296 299 310 60 276 286 310 340 340 329 315 303 300 300 298 295 285 265 259 261 270 278 274 271 269 258 247 238
259 260 260 261 265 268 264 263 268 267 262 260 261 262 264 266 267 268 270 273 275 275 272 270 269 266 266 268 262 253 250 251 248 243 241 238 232 230 235 244 252 254 249 247 252 253 245 245 232 205 236 260 285 313 326 330 319 311 315 318 323 329 324 310 282 261 259 279 278 270 266 247 229 230
257 256 258 260 266 271 267 264 269 269 264 262 262 263 265 267 267 268 270 274 275 274 272 270 267 265 264 265 259 249 251 259 254 241 235 235 234 236 240 246 254 262 264 258 259 258 245 232 211 214 251 266 277 296 308 319 319 320 320 316 318 320 315 313 305 285 269 285 295 273 254 206 200 219
252 254 259 261 266 272 271 268 271 273 271 270 269 268 270 269 266 265 267 267 268 269 268 266 265 264 262 262 260 252 251 254 252 247 241 237 241 247 248 249 252 259 265 266 259 244 232 233 215 213 251 273 290 296 298 307 315 322 325 322 320 314 305 303 296 290 289 292 297 331 101 151 184 213
250 254 260 265 270 274 274 271 271 274 276 276 274 273 275 273 268 265 264 262 263 264 265 266 267 266 263 261 259 256 256 255 253 253 252 246 247 250 250 249 249 253 259 259 248 236 231 228 216 218 250 276 291 297 298 303 309 320 331 331 326 316 305 299 288 283 282 281 284 290 269 232 220 239
254 259 264 270 274 275 274 273 272 273 274 274 273 274 276 274 272 271 268 264 262 263 265 267 267 265 260 256 254 253 256 260 257 253 253 251 249 249 251 255 261 264 262 249 233 236 237 222 217 223 251 276 289 299 304 305 308 319 334 336 332 323 309 304 295 286 282 277 273 268 262 263 265 252
253 262 267 269 270 269 268 270 270 270 270 270 270 271 270 269 270 272 271 267 263 262 264 265 262 261 259 254 251 249 248 253 256 255 255 253 250 253 258 263 267 266 259 248 237 237 230 218 226 234 251 271 289 302 307 308 308 313 330 336 333 325 313 311 307 293 291 295 282 279 289 299 299 269
253 261 265 265 265 263 261 261 259 259 263 268 266 263 263 265 266 265 264 266 267 263 261 262 262 262 262 257 253 250 247 251 257 256 254 252 251 255 256 259 261 255 245 238 236 243 237 226 229 237 245 264 287 296 297 306 308 305 314 324 325 325 319 313 312 305 299 295 282 286 301 312 325 321
249 252 254 254 253 253 256 259 257 257 264 268 264 260 262 265 264 261 260 264 268 266 264 264 262 261 261 259 256 252 249 251 254 253 251 249 245 245 247 250 253 250 240 227 225 232 233 231 229 219 228 251 273 278 281 293 300 301 308 312 312 321 319 310 310 306 294 286 279 283 294 303 316 319
255 250 247 248 251 253 259 263 263 263 267 268 265 264 265 265 261 259 259 261 263 266 268 267 265 263 262 260 256 253 250 249 248 248 248 244 241 243 247 247 246 247 243 230 225 225 220 230 241 227 226 244 249 252 269 286 299 308 317 317 309 315 316 311 309 302 293 291 280 278 286 290 302 323
272 258 246 244 246 251 258 264 267 267 267 267 267 266 265 264 261 259 257 257 260 265 268 269 268 266 263 260 255 251 248 246 246 248 248 247 246 249 250 248 245 247 247 235 230 234 229 227 242 239 235 244 244 248 263 278 293 306 311 308 307 309 310 307 302 292 286 285 279 277 281 281 285 300
276 273 260 251 243 246 256 263 265 265 264 266 268 267 264 264 265 263 261 260 262 265 267 270 269 265 264 264 257 251 249 248 249 251 252 252 250 248 250 251 247 245 246 238 225 227 227 220 225 241 245 249 252 253 258 267 272 272 277 291 299 301 305 310 305 295 291 284 275 271 272 275 276 273
271 275 268 257 250 249 256 261 263 265 267 268 268 268 268 268 268 266 264 263 264 264 263 265 263 261 264 263 252 247 249 250 248 247 245 247 249 247 245 245 238 232 229 214 203 210 222 226 222 219 220 226 236 244 256 277 282 261 257 276 281 277 287 297 291 295 307 302 283 275 275 274 272 269
271 271 269 266 262 259 260 263 265 267 269 270 269 269 270 270 269 268 265 263 264 264 264 263 261 260 263 261 253 250 250 248 249 250 247 247 250 246 240 231 222 220 213 201 205 219 228 230 230 227 222 219 220 231 249 271 274 264 270 280 263 254 271 274 250 257 279 280 276 281 285 282 275 267
276 276 277 279 282 282 277 274 272 270 271 273 275 275 275 274 273 271 269 265 262 263 264 263 262 261 262 262 262 261 256 253 258 263 262 257 252 244 238 231 214 211 211 209 218 230 228 228 235 238 233 232 234 241 253 259 261 273 284 282 262 254 256 238 230 239 244 251 266 279 287 289 286 277
282 287 296 307 313 309 299 289 283 282 282 283 283 281 281 281 279 276 274 269 263 263 264 264 264 264 263 262 262 260 258 258 262 265 265 260 251 235 223 217 199 194 209 216 220 225 223 225 238 247 248 253 255 253 257 256 256 267 272 261 250 249 243 240 248 258 257 257 266 273 275 277 278 278
314 318 333 338 332 323 316 310 305 302 303 305 303 296 289 288 282 274 268 262 256 255 257 261 266 266 262 261 260 258 258 258 258 259 258 252 242 222 201 204 205 203 213 218 216 219 219 220 241 271 291 300 296 281 268 259 251 254 260 253 246 246 254 260 263 263 263 268 274 276 272 266 265 270
336 344 4 7 7 9 4 355 352 349 350 356 352 344 337 330 318 299 283 271 262 259 256 256 261 263 257 255 255 255 254 252 249 251 250 246 243 229 211 213 216 213 215 215 210 217 234 247 270 295 307 314 314 301 287 277 263 253 253 254 250 246 250 263 269 270 271 273 277 279 276 273 272 279
21 49 39 27 31 40 36 18 2 357 10 34 34 23 14 7 10 12 1 346 331 298 272 254 250 255 259 260 258 251 246 241 237 237 235 234 235 228 213 211 225 226 226 228 223 223 238 259 282 299 306 312 314 307 298 292 279 262 250 250 252 248 248 257 266 269 270 273 279 283 280 276 273 273
85 68 42 23 34 49 46 31 12 6 24 42 42 45 43 26 25 38 36 25 20 13 346 268 246 248 251 258 247 229 224 223 222 223 225 224 223 215 197 178 167 163 178 234 253 257 263 277 296 303 304 307 310 308 299 289 279 267 252 245 245 246 254 260 255 252 263 274 283 288 284 278 271 269
79 65 47 40 49 47 42 39 32 26 34 38 34 42 52 38 34 59 62 50 41 40 47 60 80 195 201 206 218 220 224 227 223 222 225 225 222 215 198 184 186 193 201 218 255 277 286 295 301 302 305 309 311 313 308 290 271 254 241 240 243 246 250 252 249 255 268 279 286 289 288 283 272 269
78 75 74 70 63 53 46 46 45 40 39 41 39 36 43 49 50 56 66 64 53 45 51 66 77 103 192 222 236 246 247 238 230 225 224 224 227 232 233 231 235 251 266 273 278 283 292 305 314 315 317 318 316 313 311 301 273 247 240 246 257 261 258 253 252 258 270 281 289 293 295 292 279 269
95 88 83 73 67 64 60 54 53 51 44 44 48 47 48 53 51 46 50 54 45 35 39 46 46 46 46 44 350 335 302 235 229 234 237 241 249 260 269 271 276 298 311 307 300 295 301 316 323 321 315 312 307 301 297 292 269 244 240 245 259 267 265 262 263 268 275 282 286 286 283 279 273 260
103 93 84 79 74 70 66 62 61 62 57 50 48 49 53 54 47 38 39 40 37 36 38 36 37 41 39 33 25 9 349 318 271 263 266 267 268 285 306 308 313 326 328 319 310 304 302 305 309 307 300 297 297 295 292 288 272 254 248 246 250 254 257 263 271 281 289 290 282 270 264 266 265 249
95 89 84 79 73 67 64 63 61 58 55 52 46 41 40 42 38 28 24 22 22 26 26 19 16 17 16 11 355 317 301 297 284 277 277 271 264 272 282 281 290 304 303 292 289 291 292 295 298 294 286 286 290 288 283 282 290 282 268 256 251 255 263 268 273 280 287 288 280 272 268 269 265 254
90 84 78 72 68 65 57 51 50 40 27 31 47 48 42 36 26 13 7 4 3 3 356 350 347 337 326 319 310 301 297 292 288 285 281 277 273 268 259 253 256 268 272 271 274 277 279 279 272 263 261 268 271 267 258 252 257 271 277 277 279 279 277 275 271 269 271 270 266 266 269 269 267 267
88 84 77 69 66 62 53 47 47 36 17 5 355 354 31 37 16 1 353 347 357 3 349 337 336 336 331 329 325 319 316 312 308 306 303 301 300 296 290 288 288 288 286 283 281 280 277 270 263 260 266 276 280 276 271 268 268 273 281 287 291 292 290 287 282 277 275 270 263 259 261 265 269 274
79 76 71 69 65 56 47 44 37 29 26 12 348 341 353 350 343 351 351 335 341 23 10 340 342 355 343 333 327 322 326 332 331 327 322 319 317 311 309 314 319 318 310 299 292 290 278 268 267 270 276 285 292 290 285 285 285 285 286 288 290 294 297 298 299 298 294 286 277 270 267 269 272 274
76 71 65 65 62 46 36 38 28 14 14 3 341 348 4 350 343 358 2 335 333 12 20 343 336 339 328 314 303 297 305 323 327 319 314 319 318 310 311 319 324 319 304 290 285 283 271 268 279 293 299 303 306 297 286 286 290 291 290 293 297 301 301 298 301 305 307 306 303 295 283 277 275 273
92 92 84 75 73 58 39 39 31 17 17 10 349 346 2 353 346 359 4 348 349 6 10 354 346 346 345 336 325 324 337 333 311 300 303 309 309 304 303 303 300 297 297 292 289 290 287 285 294 305 308 310 307 292 286 288 290 291 293 293 293 297 300 301 304 306 307 307 307 304 299 294 288 281
97 102 83 352 342 342 354 18 24 14 15 25 19 2 1 6 3 358 356 356 357 357 353 350 343 332 321 307 299 303 313 301 295 303 317 318 315 312 309 305 301 299 299 294 290 293 296 297 299 299 298 300 301 296 294 296 296 296 299 297 289 288 295 299 301 303 304 305 306 305 304 301 297 296
56 52 30 9 355 351 359 25 37 25 12 15 20 11 359 352 351 353 351 345 343 346 349 348 340 325 313 307 307 311 309 304 311 326 327 319 316 317 315 313 311 308 305 302 300 301 302 302 303 302 296 293 292 291 291 293 294 293 294 295 294 292 291 290 290 292 294 296 299 301 300 298 298 301